Time,TemperatureF,DewpointF,PressureIn,WindDirection,WindDirectionDegrees,WindSpeedMPH,WindSpeedGustMPH,Humidity,HourlyPrecipIn,Conditions,Clouds,dailyrainin,SoftwareType,DateUTC
2013-02-27 00:00:00,31.7,-18.6,30.16,SE,135,0.0,0.2,1,0.00,,,0.00,WUHU216HW,2013-02-27 05:00:00,
2013-02-27 00:05:00,31.7,-18.6,30.16,ESE,113,0.0,0.0,1,0.00,,,0.00,WUHU216HW,2013-02-27 05:05:00,
2013-02-27 00:10:00,31.7,-18.6,30.15,SE,135,0.0,0.0,1,0.00,,,0.00,WUHU216HW,2013-02-27 05:10:00,
2013-02-27 00:15:00,31.7,-18.6,30.15,East,90,0.0,0.0,1,0.00,,,0.00,WUHU216HW,2013-02-27 05:15:00,
2013-02-27 00:20:00,31.7,-18.6,30.15,ENE,68,0.0,0.0,1,0.00,,,0.00,WUHU216HW,2013-02-27 05:20:00,
2013-02-27 00:25:00,31.9,-18.5,30.15,ESE,113,0.0,0.0,1,0.00,,,0.00,WUHU216HW,2013-02-27 05:25:00,
2013-02-27 00:30:00,32.0,-18.4,30.15,ESE,113,0.0,0.0,1,0.00,,,0.00,WUHU216HW,2013-02-27 05:30:00,
2013-02-27 00:35:00,32.0,-18.4,30.14,East,90,0.0,0.0,1,0.00,,,0.00,WUHU216HW,2013-02-27 05:35:00,
2013-02-27 00:40:00,32.2,-18.3,30.15,SE,135,0.0,0.2,1,0.00,,,0.00,WUHU216HW,2013-02-27 05:40:00,
2013-02-27 00:45:00,32.4,-18.1,30.14,ESE,113,0.0,0.2,1,0.00,,,0.00,WUHU216HW,2013-02-27 05:45:00,
2013-02-27 00:50:00,32.6,-18.0,30.14,East,90,0.0,0.0,1,0.00,,,0.00,WUHU216HW,2013-02-27 05:50:00,
2013-02-27 00:55:00,32.6,-18.0,30.14,ESE,113,0.0,0.0,1,0.00,,,0.00,WUHU216HW,2013-02-27 05:55:00,
2013-02-27 01:00:00,32.8,-17.8,30.14,SE,135,0.0,0.0,1,0.00,,,0.00,WUHU216HW,2013-02-27 06:00:00,
2013-02-27 01:05:00,32.8,-17.8,30.13,SE,135,0.0,0.0,1,0.00,,,0.00,WUHU216HW,2013-02-27 06:05:00,
2013-02-27 01:10:00,32.8,-17.8,30.12,SE,135,0.0,0.0,1,0.00,,,0.00,WUHU216HW,2013-02-27 06:10:00,
2013-02-27 01:15:00,32.8,-17.8,30.12,SSE,158,0.0,0.0,1,0.00,,,0.00,WUHU216HW,2013-02-27 06:15:00,
2013-02-27 01:20:00,32.8,-17.8,30.12,East,90,0.0,0.0,1,0.00,,,0.00,WUHU216HW,2013-02-27 06:20:00,
2013-02-27 01:25:00,32.8,-17.8,30.12,SE,135,0.0,0.0,1,0.00,,,0.00,WUHU216HW,2013-02-27 06:25:00,
2013-02-27 01:30:00,33.1,-17.6,30.12,ESE,113,0.0,0.0,1,0.00,,,0.00,WUHU216HW,2013-02-27 06:30:00,
2013-02-27 01:35:00,33.1,-17.6,30.11,SE,135,0.0,0.0,1,0.00,,,0.00,WUHU216HW,2013-02-27 06:35:00,
2013-02-27 01:40:00,33.1,-17.6,30.11,East,90,0.0,0.0,1,0.00,,,0.00,WUHU216HW,2013-02-27 06:40:00,
2013-02-27 01:45:00,33.3,-17.4,30.11,East,90,0.0,0.0,1,0.00,,,0.00,WUHU216HW,2013-02-27 06:45:00,
2013-02-27 01:50:00,33.5,-17.4,30.10,ENE,68,0.0,0.0,1,0.00,,,0.00,WUHU216HW,2013-02-27 06:50:00,
2013-02-27 01:55:00,33.5,-17.4,30.09,ESE,113,0.0,0.0,1,0.00,,,0.00,WUHU216HW,2013-02-27 06:55:00,
2013-02-27 02:00:00,33.7,-17.2,30.09,ENE,68,0.0,0.0,1,0.00,,,0.00,WUHU216HW,2013-02-27 07:00:00,
2013-02-27 02:05:00,33.8,-17.1,30.09,SE,135,0.0,0.0,1,0.00,,,0.00,WUHU216HW,2013-02-27 07:05:00,
2013-02-27 02:10:00,34.0,-16.9,30.08,ESE,113,0.0,0.0,1,0.00,,,0.00,WUHU216HW,2013-02-27 07:10:00,
2013-02-27 02:15:00,34.0,-16.9,30.08,ESE,113,0.0,0.0,1,0.00,,,0.00,WUHU216HW,2013-02-27 07:15:00,
2013-02-27 02:20:00,34.0,-16.9,30.09,East,90,0.0,0.0,1,0.00,,,0.00,WUHU216HW,2013-02-27 07:20:00,
2013-02-27 02:25:00,34.2,-16.8,30.08,SE,135,0.0,0.0,1,0.00,,,0.00,WUHU216HW,2013-02-27 07:25:00,
2013-02-27 02:30:00,34.2,-16.8,30.08,ESE,113,0.0,0.0,1,0.00,,,0.00,WUHU216HW,2013-02-27 07:30:00,
2013-02-27 02:35:00,34.2,-16.8,30.08,ESE,113,0.0,0.0,1,0.00,,,0.00,WUHU216HW,2013-02-27 07:35:00,
2013-02-27 02:40:00,34.4,-16.6,30.08,ESE,113,0.0,0.0,1,0.00,,,0.00,WUHU216HW,2013-02-27 07:40:00,
2013-02-27 02:45:00,34.6,-16.6,30.08,SE,135,0.0,0.0,1,0.00,,,0.00,WUHU216HW,2013-02-27 07:45:00,
2013-02-27 02:50:00,34.7,-16.4,30.08,SSE,158,0.0,0.0,1,0.00,,,0.00,WUHU216HW,2013-02-27 07:50:00,
2013-02-27 02:55:00,34.9,-16.2,30.08,ESE,113,0.0,0.0,1,0.00,,,0.00,WUHU216HW,2013-02-27 07:55:00,
2013-02-27 03:00:00,35.1,-16.1,30.08,South,180,0.0,0.0,1,0.00,,,0.00,WUHU216HW,2013-02-27 08:00:00,
2013-02-27 03:05:00,35.3,-15.9,30.08,East,90,0.0,0.0,1,0.00,,,0.00,WUHU216HW,2013-02-27 08:05:00,
2013-02-27 03:10:00,35.5,-15.8,30.08,South,180,0.0,0.0,1,0.00,,,0.00,WUHU216HW,2013-02-27 08:10:00,
2013-02-27 03:15:00,35.6,-15.7,30.08,ESE,113,0.0,0.0,1,0.00,,,0.00,WUHU216HW,2013-02-27 08:15:00,
2013-02-27 03:20:00,35.6,-15.7,30.08,SE,135,0.0,0.0,1,0.00,,,0.00,WUHU216HW,2013-02-27 08:20:00,
2013-02-27 03:25:00,35.6,-15.7,30.08,SE,135,0.0,0.0,1,0.00,,,0.00,WUHU216HW,2013-02-27 08:25:00,
2013-02-27 03:30:00,35.6,-15.7,30.08,East,90,0.0,0.0,1,0.00,,,0.00,WUHU216HW,2013-02-27 08:30:00,
2013-02-27 03:35:00,35.8,-15.5,30.07,East,90,0.0,0.2,1,0.00,,,0.00,WUHU216HW,2013-02-27 08:35:00,
2013-02-27 03:40:00,35.8,-15.5,30.08,East,90,0.0,0.2,1,0.00,,,0.00,WUHU216HW,2013-02-27 08:40:00,
2013-02-27 03:45:00,35.8,-15.5,30.08,ESE,113,0.0,0.2,1,0.00,,,0.00,WUHU216HW,2013-02-27 08:45:00,
2013-02-27 03:50:00,35.6,-15.7,30.08,East,90,0.0,0.2,1,0.00,,,0.00,WUHU216HW,2013-02-27 08:50:00,
2013-02-27 03:55:00,35.6,-15.7,30.08,ESE,113,0.0,0.0,1,0.00,,,0.00,WUHU216HW,2013-02-27 08:55:00,
2013-02-27 04:00:00,35.5,-15.8,30.08,SE,135,0.0,0.0,1,0.00,,,0.00,WUHU216HW,2013-02-27 09:00:00,
2013-02-27 04:05:00,35.3,-15.9,30.08,ESE,113,0.0,0.0,1,0.01,,,0.02,WUHU216HW,2013-02-27 09:05:00,
2013-02-27 04:10:00,35.3,-15.9,30.08,SE,135,0.0,0.0,1,0.01,,,0.02,WUHU216HW,2013-02-27 09:10:00,
2013-02-27 04:15:00,35.3,-15.9,30.07,NE,45,0.0,0.0,1,0.01,,,0.02,WUHU216HW,2013-02-27 09:15:00,
2013-02-27 04:20:00,35.1,-16.1,30.07,ENE,68,0.0,0.0,1,0.02,,,0.03,WUHU216HW,2013-02-27 09:20:00,
2013-02-27 04:25:00,34.9,-16.2,30.05,East,90,0.0,0.0,1,0.02,,,0.03,WUHU216HW,2013-02-27 09:25:00,
2013-02-27 04:30:00,34.9,-16.2,30.03,SSW,203,0.0,0.0,1,0.02,,,0.03,WUHU216HW,2013-02-27 09:30:00,
2013-02-27 04:35:00,34.7,-16.4,30.04,NNE,23,0.0,0.0,1,0.03,,,0.04,WUHU216HW,2013-02-27 09:35:00,
2013-02-27 04:40:00,34.6,-16.6,30.05,SE,135,0.0,0.0,1,0.03,,,0.04,WUHU216HW,2013-02-27 09:40:00,
2013-02-27 04:44:00,34.7,-16.4,30.05,ESE,113,0.0,0.0,1,0.03,,,0.04,WUHU216HW,2013-02-27 09:44:00,
2013-02-27 04:49:00,34.6,-16.6,30.06,ESE,113,0.0,0.0,1,0.04,,,0.05,WUHU216HW,2013-02-27 09:49:00,
2013-02-27 04:54:00,34.6,-16.6,30.06,SE,135,0.0,0.0,1,0.04,,,0.05,WUHU216HW,2013-02-27 09:54:00,
2013-02-27 04:59:00,34.6,-16.6,30.05,East,90,0.0,0.0,1,0.05,,,0.06,WUHU216HW,2013-02-27 09:59:00,
2013-02-27 05:04:00,34.6,-16.6,30.05,ESE,113,0.0,0.0,1,0.04,,,0.06,WUHU216HW,2013-02-27 10:04:00,
2013-02-27 05:09:00,34.4,-16.6,30.05,ESE,113,0.0,0.0,1,0.05,,,0.07,WUHU216HW,2013-02-27 10:09:00,
2013-02-27 05:14:00,34.4,-16.6,30.04,ESE,113,0.0,0.0,1,0.06,,,0.08,WUHU216HW,2013-02-27 10:14:00,
2013-02-27 05:19:00,34.4,-16.6,30.03,NNW,338,0.0,0.2,1,0.06,,,0.09,WUHU216HW,2013-02-27 10:19:00,
2013-02-27 05:24:00,34.4,-16.6,30.04,SE,135,0.0,0.2,1,0.07,,,0.10,WUHU216HW,2013-02-27 10:24:00,
2013-02-27 05:29:00,34.4,-16.6,30.04,SSE,158,0.0,0.2,1,0.07,,,0.11,WUHU216HW,2013-02-27 10:29:00,
2013-02-27 05:34:00,34.6,-16.6,30.03,SSE,158,0.0,0.2,1,0.08,,,0.12,WUHU216HW,2013-02-27 10:34:00,
2013-02-27 05:39:00,34.7,-16.4,30.03,SE,135,0.0,0.2,1,0.09,,,0.13,WUHU216HW,2013-02-27 10:39:00,
2013-02-27 05:44:00,34.7,-16.4,30.03,SSE,158,0.0,0.2,1,0.08,,,0.13,WUHU216HW,2013-02-27 10:44:00,
2013-02-27 05:49:00,34.9,-16.2,30.03,SE,135,0.0,0.2,1,0.08,,,0.13,WUHU216HW,2013-02-27 10:49:00,
2013-02-27 05:54:00,34.9,-16.2,30.02,NE,45,0.0,0.0,1,0.09,,,0.14,WUHU216HW,2013-02-27 10:54:00,
2013-02-27 05:59:00,34.9,-16.2,30.02,SSE,158,0.0,0.2,1,0.08,,,0.14,WUHU216HW,2013-02-27 10:59:00,
2013-02-27 06:04:00,34.9,-16.2,30.01,ESE,113,0.0,0.2,1,0.07,,,0.14,WUHU216HW,2013-02-27 11:04:00,
2013-02-27 06:09:00,34.9,-16.2,30.01,ESE,113,0.2,0.2,1,0.06,,,0.14,WUHU216HW,2013-02-27 11:09:00,
2013-02-27 06:14:00,34.9,-16.2,30.01,SE,135,0.0,0.2,1,0.07,,,0.15,WUHU216HW,2013-02-27 11:14:00,
2013-02-27 06:19:00,34.9,-16.2,30.00,SE,135,0.0,0.2,1,0.06,,,0.15,WUHU216HW,2013-02-27 11:19:00,
2013-02-27 06:24:00,35.1,-16.1,30.00,ESE,113,0.0,0.0,1,0.05,,,0.16,WUHU216HW,2013-02-27 11:24:00,
2013-02-27 06:29:00,35.3,-15.9,30.00,SSE,158,0.0,0.0,1,0.04,,,0.16,WUHU216HW,2013-02-27 11:29:00,
2013-02-27 06:34:00,35.3,-15.9,30.00,SSE,158,0.0,0.0,1,0.04,,,0.16,WUHU216HW,2013-02-27 11:34:00,
2013-02-27 06:39:00,35.3,-15.9,30.00,ESE,113,0.0,0.0,1,0.04,,,0.17,WUHU216HW,2013-02-27 11:39:00,
2013-02-27 06:44:00,35.5,-15.8,29.99,ESE,113,0.0,0.0,1,0.04,,,0.17,WUHU216HW,2013-02-27 11:44:00,
2013-02-27 06:49:00,35.5,-15.8,30.00,ESE,113,0.2,0.2,1,0.05,,,0.18,WUHU216HW,2013-02-27 11:49:00,
2013-02-27 06:54:00,35.5,-15.8,29.99,SSE,158,0.0,0.2,1,0.04,,,0.18,WUHU216HW,2013-02-27 11:54:00,
2013-02-27 06:59:00,35.6,-15.7,29.99,SSE,158,0.0,0.2,1,0.04,,,0.18,WUHU216HW,2013-02-27 11:59:00,
2013-02-27 07:04:00,35.8,-15.5,29.99,ENE,68,0.2,0.2,1,0.05,,,0.19,WUHU216HW,2013-02-27 12:04:00,
2013-02-27 07:09:00,36.0,-15.4,29.98,SSE,158,0.0,0.2,1,0.04,,,0.19,WUHU216HW,2013-02-27 12:09:00,
2013-02-27 07:14:00,36.0,-15.4,29.98,ESE,113,0.0,0.2,1,0.04,,,0.19,WUHU216HW,2013-02-27 12:14:00,
2013-02-27 07:19:00,36.0,-15.4,29.98,SE,135,0.0,0.0,1,0.04,,,0.19,WUHU216HW,2013-02-27 12:19:00,
2013-02-27 07:24:00,36.4,-15.1,29.98,SSE,158,0.0,0.2,1,0.04,,,0.20,WUHU216HW,2013-02-27 12:24:00,
2013-02-27 07:29:00,36.5,-14.9,29.98,ESE,113,0.0,0.2,1,0.04,,,0.20,WUHU216HW,2013-02-27 12:29:00,
2013-02-27 07:34:00,36.7,-14.7,29.97,SE,135,0.0,0.0,1,0.04,,,0.20,WUHU216HW,2013-02-27 12:34:00,
2013-02-27 07:39:00,36.7,-14.7,29.97,SSE,158,0.0,0.4,1,0.03,,,0.20,WUHU216HW,2013-02-27 12:39:00,
2013-02-27 07:44:00,36.9,-14.7,29.97,SSE,158,0.0,0.4,1,0.03,,,0.21,WUHU216HW,2013-02-27 12:44:00,
2013-02-27 07:49:00,37.1,-14.5,29.97,SE,135,0.0,0.2,1,0.03,,,0.21,WUHU216HW,2013-02-27 12:49:00,
2013-02-27 07:54:00,37.1,-14.5,29.97,SSE,158,0.0,0.2,1,0.04,,,0.22,WUHU216HW,2013-02-27 12:54:00,
2013-02-27 07:59:00,37.3,-14.4,29.96,ESE,113,0.0,0.2,1,0.04,,,0.22,WUHU216HW,2013-02-27 12:59:00,
2013-02-27 08:04:00,37.3,-14.4,29.96,ESE,113,0.0,0.4,1,0.03,,,0.22,WUHU216HW,2013-02-27 13:04:00,
2013-02-27 08:09:00,37.4,-14.2,29.95,ESE,113,0.0,0.4,1,0.04,,,0.23,WUHU216HW,2013-02-27 13:09:00,
2013-02-27 08:14:00,37.3,-14.4,29.95,SE,135,0.0,0.2,1,0.04,,,0.23,WUHU216HW,2013-02-27 13:14:00,
2013-02-27 08:19:00,37.4,-14.2,29.94,SE,135,0.0,0.2,1,0.04,,,0.23,WUHU216HW,2013-02-27 13:19:00,
2013-02-27 08:24:00,37.4,-14.2,29.95,SE,135,0.0,0.7,1,0.03,,,0.23,WUHU216HW,2013-02-27 13:24:00,
2013-02-27 08:29:00,37.6,-14.0,29.95,ESE,113,0.0,0.7,1,0.03,,,0.23,WUHU216HW,2013-02-27 13:29:00,
2013-02-27 08:34:00,37.6,-14.0,29.95,SE,135,0.0,0.4,1,0.03,,,0.23,WUHU216HW,2013-02-27 13:34:00,
2013-02-27 08:39:00,37.8,-13.9,29.94,ESE,113,0.0,0.7,1,0.03,,,0.23,WUHU216HW,2013-02-27 13:39:00,
2013-02-27 08:44:00,37.8,-13.9,29.94,ESE,113,0.0,0.7,1,0.02,,,0.23,WUHU216HW,2013-02-27 13:44:00,
2013-02-27 08:49:00,37.8,-13.9,29.93,SE,135,0.0,0.2,1,0.03,,,0.24,WUHU216HW,2013-02-27 13:49:00,
2013-02-27 08:54:00,38.0,-13.8,29.92,SSE,158,0.0,0.2,1,0.02,,,0.24,WUHU216HW,2013-02-27 13:54:00,
2013-02-27 08:59:00,38.0,-13.8,29.92,SE,135,0.0,0.0,1,0.03,,,0.25,WUHU216HW,2013-02-27 13:59:00,
2013-02-27 09:04:00,38.3,-13.5,29.92,SSE,158,0.0,0.0,1,0.03,,,0.26,WUHU216HW,2013-02-27 14:04:00,
2013-02-27 09:09:00,38.2,-13.7,29.92,ESE,113,0.0,0.2,1,0.03,,,0.26,WUHU216HW,2013-02-27 14:09:00,
2013-02-27 09:14:00,38.3,-13.5,29.92,SSE,158,0.0,0.2,1,0.03,,,0.26,WUHU216HW,2013-02-27 14:14:00,
2013-02-27 09:19:00,38.5,-13.3,29.92,SE,135,0.0,0.0,1,0.04,,,0.27,WUHU216HW,2013-02-27 14:19:00,
2013-02-27 09:24:00,38.5,-13.3,29.92,SSE,158,0.0,0.0,1,0.04,,,0.27,WUHU216HW,2013-02-27 14:24:00,
2013-02-27 09:29:00,38.5,-13.3,29.91,South,180,0.0,0.2,1,0.05,,,0.28,WUHU216HW,2013-02-27 14:29:00,
2013-02-27 09:34:00,38.5,-13.3,29.91,ESE,113,0.0,0.7,1,0.05,,,0.28,WUHU216HW,2013-02-27 14:34:00,
2013-02-27 09:39:00,38.5,-13.3,29.91,SE,135,0.4,0.7,1,0.06,,,0.29,WUHU216HW,2013-02-27 14:39:00,
2013-02-27 09:44:00,38.3,-13.5,29.90,SE,135,0.0,0.4,1,0.07,,,0.30,WUHU216HW,2013-02-27 14:44:00,
2013-02-27 09:49:00,38.3,-13.5,29.90,ESE,113,0.0,0.4,1,0.07,,,0.31,WUHU216HW,2013-02-27 14:49:00,
2013-02-27 09:54:00,38.5,-13.3,29.89,SSE,158,0.0,0.2,1,0.08,,,0.32,WUHU216HW,2013-02-27 14:54:00,
2013-02-27 09:59:00,38.5,-13.3,29.90,SSE,158,0.0,0.2,1,0.08,,,0.33,WUHU216HW,2013-02-27 14:59:00,
2013-02-27 10:04:00,38.5,-13.3,29.90,SE,135,0.0,0.0,1,0.08,,,0.34,WUHU216HW,2013-02-27 15:04:00,
2013-02-27 10:09:00,38.5,-13.3,29.90,SSE,158,0.0,0.4,1,0.08,,,0.34,WUHU216HW,2013-02-27 15:09:00,
2013-02-27 10:14:00,38.5,-13.3,29.90,SE,135,0.0,0.4,1,0.08,,,0.35,WUHU216HW,2013-02-27 15:14:00,
2013-02-27 10:19:00,38.9,-13.0,29.90,SSE,158,0.0,0.0,1,0.09,,,0.36,WUHU216HW,2013-02-27 15:19:00,
2013-02-27 10:24:00,39.1,-13.0,29.89,SSE,158,0.0,0.2,1,0.09,,,0.36,WUHU216HW,2013-02-27 15:24:00,
2013-02-27 10:29:00,39.2,-12.8,29.89,SSW,203,0.2,0.2,1,0.09,,,0.36,WUHU216HW,2013-02-27 15:29:00,
2013-02-27 10:34:00,39.2,-12.8,29.89,SE,135,0.0,0.2,1,0.09,,,0.37,WUHU216HW,2013-02-27 15:34:00,
2013-02-27 10:39:00,39.2,-12.8,29.89,SSE,158,0.0,0.2,1,0.08,,,0.37,WUHU216HW,2013-02-27 15:39:00,
2013-02-27 10:44:00,39.2,-12.8,29.88,SE,135,0.0,0.2,1,0.06,,,0.37,WUHU216HW,2013-02-27 15:44:00,
2013-02-27 10:49:00,39.2,-12.8,29.88,SSE,158,0.0,0.0,1,0.06,,,0.38,WUHU216HW,2013-02-27 15:49:00,
2013-02-27 10:54:00,39.4,-12.6,29.87,SE,135,0.0,0.2,1,0.06,,,0.38,WUHU216HW,2013-02-27 15:54:00,
2013-02-27 10:59:00,39.4,-12.6,29.87,SSE,158,0.0,0.2,1,0.06,,,0.39,WUHU216HW,2013-02-27 15:59:00,
2013-02-27 11:04:00,39.2,-12.8,29.87,SSE,158,0.0,2.5,1,0.06,,,0.40,WUHU216HW,2013-02-27 16:04:00,
2013-02-27 11:09:00,39.4,-12.6,29.87,SSE,158,0.0,4.3,1,0.06,,,0.40,WUHU216HW,2013-02-27 16:09:00,
2013-02-27 11:14:00,39.2,-12.8,29.86,South,180,0.2,4.3,1,0.06,,,0.41,WUHU216HW,2013-02-27 16:14:00,
2013-02-27 11:19:00,39.2,-12.8,29.86,SE,135,0.0,0.4,1,0.06,,,0.42,WUHU216HW,2013-02-27 16:19:00,
2013-02-27 11:24:00,39.2,-12.8,29.86,SSW,203,0.0,0.2,1,0.07,,,0.43,WUHU216HW,2013-02-27 16:24:00,
2013-02-27 11:29:00,39.2,-12.8,29.86,SSE,158,0.0,0.2,1,0.07,,,0.44,WUHU216HW,2013-02-27 16:29:00,
2013-02-27 11:34:00,39.2,-12.8,29.85,SSE,158,0.0,0.2,1,0.08,,,0.45,WUHU216HW,2013-02-27 16:34:00,
2013-02-27 11:39:00,39.2,-12.8,29.85,SSE,158,0.0,0.4,1,0.08,,,0.45,WUHU216HW,2013-02-27 16:39:00,
2013-02-27 11:44:00,39.2,-12.8,29.84,SE,135,0.0,0.4,1,0.09,,,0.47,WUHU216HW,2013-02-27 16:44:00,
2013-02-27 11:49:00,39.2,-12.8,29.85,SE,135,0.0,0.4,1,0.08,,,0.47,WUHU216HW,2013-02-27 16:49:00,
2013-02-27 11:54:00,39.2,-12.8,29.85,SE,135,0.0,0.0,1,0.09,,,0.47,WUHU216HW,2013-02-27 16:54:00,
2013-02-27 11:59:00,39.2,-12.8,29.84,ESE,113,0.0,0.2,1,0.08,,,0.47,WUHU216HW,2013-02-27 16:59:00,
2013-02-27 12:04:00,39.2,-12.8,29.84,South,180,0.0,0.2,1,0.08,,,0.49,WUHU216HW,2013-02-27 17:04:00,
2013-02-27 12:09:00,39.2,-12.8,29.83,SE,135,0.0,0.2,1,0.08,,,0.49,WUHU216HW,2013-02-27 17:09:00,
2013-02-27 12:14:00,39.2,-12.8,29.83,SE,135,0.0,0.0,1,0.08,,,0.49,WUHU216HW,2013-02-27 17:14:00,
2013-02-27 12:19:00,39.2,-12.8,29.83,SE,135,0.0,0.2,1,0.08,,,0.50,WUHU216HW,2013-02-27 17:19:00,
2013-02-27 12:24:00,39.1,-13.0,29.82,SSE,158,0.0,0.4,1,0.07,,,0.51,WUHU216HW,2013-02-27 17:24:00,
2013-02-27 12:29:00,39.1,-13.0,29.82,SE,135,0.0,0.4,1,0.08,,,0.52,WUHU216HW,2013-02-27 17:29:00,
2013-02-27 12:34:00,39.1,-13.0,29.81,SSE,158,0.0,4.7,1,0.09,,,0.54,WUHU216HW,2013-02-27 17:34:00,
2013-02-27 12:39:00,38.9,-13.0,29.81,North,0,0.4,4.7,1,0.09,,,0.54,WUHU216HW,2013-02-27 17:39:00,
2013-02-27 12:44:00,38.7,-13.2,29.81,NNW,338,0.0,1.8,1,0.09,,,0.56,WUHU216HW,2013-02-27 17:44:00,
2013-02-27 12:49:00,38.5,-13.3,29.81,NNW,338,0.4,2.2,1,0.09,,,0.56,WUHU216HW,2013-02-27 17:49:00,
2013-02-27 12:54:00,38.3,-13.5,29.81,North,0,1.1,2.2,1,0.10,,,0.58,WUHU216HW,2013-02-27 17:54:00,
2013-02-27 12:59:00,38.0,-13.8,29.80,NNW,338,0.2,1.8,1,0.11,,,0.58,WUHU216HW,2013-02-27 17:59:00,
2013-02-27 13:04:00,38.0,-13.8,29.80,North,0,0.9,1.8,1,0.11,,,0.60,WUHU216HW,2013-02-27 18:04:00,
2013-02-27 13:09:00,37.8,-13.9,29.79,North,0,0.4,1.3,1,0.10,,,0.60,WUHU216HW,2013-02-27 18:09:00,
2013-02-27 13:14:00,37.4,-14.2,29.79,North,0,0.4,2.2,1,0.10,,,0.61,WUHU216HW,2013-02-27 18:14:00,
2013-02-27 13:19:00,37.4,-14.2,29.79,North,0,0.2,2.2,1,0.11,,,0.62,WUHU216HW,2013-02-27 18:19:00,
2013-02-27 13:24:00,37.3,-14.4,29.79,NNW,338,0.0,1.1,1,0.10,,,0.63,WUHU216HW,2013-02-27 18:24:00,
2013-02-27 13:29:00,37.1,-14.5,29.79,NNW,338,0.4,1.1,1,0.10,,,0.63,WUHU216HW,2013-02-27 18:29:00,
2013-02-27 13:34:00,36.7,-14.7,29.79,North,0,0.4,1.3,1,0.10,,,0.65,WUHU216HW,2013-02-27 18:34:00,
2013-02-27 13:39:00,36.7,-14.7,29.78,North,0,1.3,1.3,1,0.10,,,0.66,WUHU216HW,2013-02-27 18:39:00,
2013-02-27 13:44:00,36.4,-15.1,29.79,North,0,0.9,1.3,1,0.09,,,0.66,WUHU216HW,2013-02-27 18:44:00,
2013-02-27 13:49:00,36.2,-15.2,29.78,NNW,338,0.4,1.3,1,0.09,,,0.67,WUHU216HW,2013-02-27 18:49:00,
2013-02-27 13:54:00,36.0,-15.4,29.79,North,0,0.4,0.9,1,0.09,,,0.68,WUHU216HW,2013-02-27 18:54:00,
2013-02-27 13:59:00,35.8,-15.5,29.78,NNW,338,0.0,1.1,1,0.10,,,0.69,WUHU216HW,2013-02-27 18:59:00,
2013-02-27 14:04:00,35.6,-15.7,29.79,NNW,338,0.0,1.1,1,0.09,,,0.69,WUHU216HW,2013-02-27 19:04:00,
2013-02-27 14:09:00,35.6,-15.7,29.79,North,0,0.0,1.1,1,0.09,,,0.70,WUHU216HW,2013-02-27 19:09:00,
2013-02-27 14:14:00,35.6,-15.7,29.78,NNW,338,0.0,0.4,1,0.10,,,0.71,WUHU216HW,2013-02-27 19:14:00,
2013-02-27 14:19:00,35.5,-15.8,29.78,NW,315,0.0,0.4,1,0.09,,,0.71,WUHU216HW,2013-02-27 19:19:00,
2013-02-27 14:24:00,35.3,-15.9,29.78,North,0,0.4,1.1,1,0.09,,,0.72,WUHU216HW,2013-02-27 19:24:00,
2013-02-27 14:29:00,35.1,-16.1,29.78,North,0,0.0,1.1,1,0.08,,,0.73,WUHU216HW,2013-02-27 19:29:00,
2013-02-27 14:34:00,35.1,-16.1,29.77,North,0,1.1,1.1,1,0.08,,,0.73,WUHU216HW,2013-02-27 19:34:00,
2013-02-27 14:39:00,35.1,-16.1,29.77,North,0,0.0,1.1,1,0.08,,,0.74,WUHU216HW,2013-02-27 19:39:00,
2013-02-27 14:44:00,35.1,-16.1,29.77,NNE,23,0.4,1.1,1,0.08,,,0.75,WUHU216HW,2013-02-27 19:44:00,
2013-02-27 14:49:00,34.9,-16.2,29.77,NNE,23,0.2,0.4,1,0.08,,,0.75,WUHU216HW,2013-02-27 19:49:00,
2013-02-27 14:54:00,34.9,-16.2,29.77,NNE,23,0.4,0.7,1,0.08,,,0.76,WUHU216HW,2013-02-27 19:54:00,
2013-02-27 14:59:00,34.7,-16.4,29.77,NNW,338,0.0,0.7,1,0.07,,,0.76,WUHU216HW,2013-02-27 19:59:00,
2013-02-27 15:04:00,34.6,-16.6,29.77,North,0,0.2,0.7,1,0.07,,,0.77,WUHU216HW,2013-02-27 20:04:00,
2013-02-27 15:09:00,34.4,-16.6,29.77,North,0,0.0,0.7,1,0.07,,,0.77,WUHU216HW,2013-02-27 20:09:00,
2013-02-27 15:14:00,34.2,-16.8,29.77,NNW,338,0.2,0.4,1,0.06,,,0.77,WUHU216HW,2013-02-27 20:14:00,
2013-02-27 15:19:00,34.2,-16.8,29.76,NNE,23,0.4,0.7,1,0.07,,,0.78,WUHU216HW,2013-02-27 20:19:00,
2013-02-27 15:24:00,34.2,-16.8,29.76,North,0,0.4,0.7,1,0.05,,,0.78,WUHU216HW,2013-02-27 20:24:00,
2013-02-27 15:29:00,34.2,-16.8,29.76,North,0,0.4,0.9,1,0.05,,,0.78,WUHU216HW,2013-02-27 20:29:00,
2013-02-27 15:34:00,34.0,-16.9,29.76,NNW,338,0.0,0.9,1,0.05,,,0.79,WUHU216HW,2013-02-27 20:34:00,
2013-02-27 15:39:00,33.8,-17.1,29.76,NE,45,0.2,0.7,1,0.05,,,0.79,WUHU216HW,2013-02-27 20:39:00,
2013-02-27 15:44:00,33.8,-17.1,29.75,North,0,0.2,0.7,1,0.04,,,0.79,WUHU216HW,2013-02-27 20:44:00,
2013-02-27 15:49:00,33.8,-17.1,29.75,WNW,293,0.7,0.7,1,0.05,,,0.80,WUHU216HW,2013-02-27 20:49:00,
2013-02-27 15:54:00,33.7,-17.2,29.75,NW,315,0.0,0.7,1,0.04,,,0.80,WUHU216HW,2013-02-27 20:54:00,
2013-02-27 15:59:00,33.7,-17.2,29.76,North,0,0.4,0.7,1,0.04,,,0.80,WUHU216HW,2013-02-27 20:59:00,
2013-02-27 16:04:00,33.7,-17.2,29.76,North,0,0.0,1.1,1,0.03,,,0.80,WUHU216HW,2013-02-27 21:04:00,
2013-02-27 16:09:00,33.7,-17.2,29.75,North,0,0.2,1.1,1,0.04,,,0.81,WUHU216HW,2013-02-27 21:09:00,
2013-02-27 16:14:00,33.5,-17.4,29.75,NNE,23,0.0,0.4,1,0.04,,,0.81,WUHU216HW,2013-02-27 21:14:00,
2013-02-27 16:19:00,33.5,-17.4,29.74,NNW,338,0.4,0.4,1,0.03,,,0.81,WUHU216HW,2013-02-27 21:19:00,
2013-02-27 16:24:00,33.5,-17.4,29.74,NNW,338,0.2,1.1,1,0.03,,,0.81,WUHU216HW,2013-02-27 21:24:00,
2013-02-27 16:29:00,33.5,-17.4,29.74,NNW,338,0.0,1.1,1,0.02,,,0.81,WUHU216HW,2013-02-27 21:29:00,
2013-02-27 16:34:00,33.5,-17.4,29.74,NNW,338,0.2,0.4,1,0.02,,,0.81,WUHU216HW,2013-02-27 21:34:00,
2013-02-27 16:39:00,33.3,-17.4,29.74,NNW,338,0.4,1.8,1,0.03,,,0.82,WUHU216HW,2013-02-27 21:39:00,
2013-02-27 16:44:00,33.3,-17.4,29.73,ENE,68,0.2,1.8,1,0.03,,,0.82,WUHU216HW,2013-02-27 21:44:00,
2013-02-27 16:49:00,33.1,-17.6,29.73,NNW,338,0.0,0.9,1,0.02,,,0.82,WUHU216HW,2013-02-27 21:49:00,
2013-02-27 16:54:00,32.9,-17.7,29.72,NNW,338,0.4,0.9,1,0.02,,,0.82,WUHU216HW,2013-02-27 21:54:00,
2013-02-27 16:59:00,32.9,-17.7,29.72,North,0,0.0,0.7,1,0.02,,,0.82,WUHU216HW,2013-02-27 21:59:00,
2013-02-27 17:04:00,32.9,-17.7,29.72,NNW,338,0.2,1.3,1,0.02,,,0.82,WUHU216HW,2013-02-27 22:04:00,
2013-02-27 17:09:00,32.9,-17.7,29.72,North,0,0.2,1.3,1,0.01,,,0.82,WUHU216HW,2013-02-27 22:09:00,
2013-02-27 17:14:00,32.8,-17.8,29.72,NNW,338,0.0,0.4,1,0.01,,,0.82,WUHU216HW,2013-02-27 22:14:00,
2013-02-27 17:19:00,32.8,-17.8,29.71,NW,315,0.0,0.4,1,0.01,,,0.82,WUHU216HW,2013-02-27 22:19:00,
2013-02-27 17:24:00,32.8,-17.8,29.71,NNW,338,0.0,0.9,1,0.01,,,0.82,WUHU216HW,2013-02-27 22:24:00,
2013-02-27 17:29:00,32.8,-17.8,29.70,NNE,23,0.0,0.9,1,0.01,,,0.82,WUHU216HW,2013-02-27 22:29:00,
2013-02-27 17:34:00,32.8,-17.8,29.70,NNE,23,0.0,1.1,1,0.01,,,0.82,WUHU216HW,2013-02-27 22:34:00,
2013-02-27 17:39:00,32.8,-17.8,29.70,NNW,338,0.2,1.1,1,0.00,,,0.82,WUHU216HW,2013-02-27 22:39:00,
2013-02-27 17:44:00,32.8,-17.8,29.71,NNE,23,0.7,0.7,1,0.00,,,0.82,WUHU216HW,2013-02-27 22:44:00,
2013-02-27 17:49:00,32.8,-17.8,29.71,NW,315,0.0,0.7,1,0.00,,,0.82,WUHU216HW,2013-02-27 22:49:00,
2013-02-27 17:54:00,32.8,-17.8,29.71,NNW,338,0.2,0.7,1,0.00,,,0.82,WUHU216HW,2013-02-27 22:54:00,
2013-02-27 17:59:00,32.8,-17.8,29.71,NNE,23,0.0,0.7,1,0.00,,,0.82,WUHU216HW,2013-02-27 22:59:00,
2013-02-27 18:04:00,32.8,-17.8,29.70,NNW,338,0.0,0.4,1,0.00,,,0.82,WUHU216HW,2013-02-27 23:04:00,
2013-02-27 18:09:00,32.8,-17.8,29.71,NNE,23,0.2,0.4,1,0.00,,,0.82,WUHU216HW,2013-02-27 23:09:00,
2013-02-27 18:14:00,32.8,-17.8,29.70,NW,315,0.0,0.4,1,0.00,,,0.82,WUHU216HW,2013-02-27 23:14:00,
2013-02-27 18:19:00,32.8,-17.8,29.70,NNE,23,0.4,0.7,1,0.01,,,0.83,WUHU216HW,2013-02-27 23:19:00,
2013-02-27 18:24:00,32.8,-17.8,29.70,North,0,0.4,0.7,1,0.01,,,0.83,WUHU216HW,2013-02-27 23:24:00,
2013-02-27 18:29:00,32.8,-17.8,29.70,NNW,338,0.9,0.9,1,0.01,,,0.83,WUHU216HW,2013-02-27 23:29:00,
2013-02-27 18:34:00,32.8,-17.8,29.69,NNW,338,0.2,0.9,1,0.01,,,0.83,WUHU216HW,2013-02-27 23:34:00,
2013-02-27 18:39:00,32.8,-17.8,29.69,NNW,338,0.0,0.9,1,0.01,,,0.83,WUHU216HW,2013-02-27 23:39:00,
2013-02-27 18:44:00,32.8,-17.8,29.70,North,0,0.0,0.7,1,0.01,,,0.83,WUHU216HW,2013-02-27 23:44:00,
2013-02-27 18:49:00,32.8,-17.8,29.70,NNW,338,0.0,0.7,1,0.01,,,0.83,WUHU216HW,2013-02-27 23:49:00,
2013-02-27 18:54:00,32.8,-17.8,29.69,North,0,0.2,0.9,1,0.01,,,0.83,WUHU216HW,2013-02-27 23:54:00,
2013-02-27 18:59:00,32.8,-17.8,29.69,NNW,338,0.0,0.9,1,0.01,,,0.83,WUHU216HW,2013-02-27 23:59:00,
2013-02-27 19:04:00,32.8,-17.8,29.69,NW,315,0.2,0.7,1,0.02,,,0.84,WUHU216HW,2013-02-28 00:04:00,
2013-02-27 19:09:00,32.8,-17.8,29.68,NW,315,0.0,0.4,1,0.02,,,0.84,WUHU216HW,2013-02-28 00:09:00,
2013-02-27 19:14:00,32.8,-17.8,29.67,North,0,0.0,0.4,1,0.01,,,0.84,WUHU216HW,2013-02-28 00:14:00,
2013-02-27 19:19:00,32.8,-17.8,29.68,NW,315,0.4,0.7,1,0.01,,,0.84,WUHU216HW,2013-02-28 00:19:00,
2013-02-27 19:24:00,32.8,-17.8,29.67,WNW,293,0.2,0.7,1,0.01,,,0.84,WUHU216HW,2013-02-28 00:24:00,
2013-02-27 19:29:00,32.8,-17.8,29.67,North,0,0.4,0.4,1,0.01,,,0.84,WUHU216HW,2013-02-28 00:29:00,
2013-02-27 19:34:00,32.8,-17.8,29.67,NW,315,0.0,0.4,1,0.01,,,0.84,WUHU216HW,2013-02-28 00:34:00,
2013-02-27 19:39:00,32.9,-17.7,29.66,NNW,338,0.2,0.4,1,0.01,,,0.84,WUHU216HW,2013-02-28 00:39:00,
2013-02-27 19:44:00,32.9,-17.7,29.66,North,0,0.4,0.4,1,0.01,,,0.84,WUHU216HW,2013-02-28 00:44:00,
2013-02-27 19:49:00,32.9,-17.7,29.66,NNW,338,0.0,0.4,1,0.01,,,0.84,WUHU216HW,2013-02-28 00:49:00,
2013-02-27 19:54:00,32.9,-17.7,29.65,NNW,338,0.0,0.4,1,0.01,,,0.84,WUHU216HW,2013-02-28 00:54:00,
2013-02-27 19:59:00,32.9,-17.7,29.64,WNW,293,0.4,0.7,1,0.01,,,0.84,WUHU216HW,2013-02-28 00:59:00,
2013-02-27 20:04:00,32.9,-17.7,29.64,NNE,23,0.4,0.7,1,0.01,,,0.85,WUHU216HW,2013-02-28 01:04:00,
2013-02-27 20:09:00,32.9,-17.7,29.64,NNE,23,0.4,0.7,1,0.01,,,0.85,WUHU216HW,2013-02-28 01:09:00,
2013-02-27 20:14:00,32.9,-17.7,29.64,NW,315,0.0,0.7,1,0.01,,,0.85,WUHU216HW,2013-02-28 01:14:00,
2013-02-27 20:19:00,32.9,-17.7,29.64,NW,315,0.0,0.4,1,0.01,,,0.85,WUHU216HW,2013-02-28 01:19:00,
2013-02-27 20:24:00,32.9,-17.7,29.63,NW,315,0.0,0.0,1,0.01,,,0.85,WUHU216HW,2013-02-28 01:24:00,
2013-02-27 20:29:00,32.9,-17.7,29.63,North,0,0.2,0.2,1,0.01,,,0.85,WUHU216HW,2013-02-28 01:29:00,
2013-02-27 20:34:00,32.9,-17.7,29.62,NNW,338,0.0,0.7,1,0.02,,,0.86,WUHU216HW,2013-02-28 01:34:00,
2013-02-27 20:39:00,32.9,-17.7,29.62,NNW,338,0.2,0.7,1,0.02,,,0.86,WUHU216HW,2013-02-28 01:39:00,
2013-02-27 20:44:00,33.1,-17.6,29.62,NW,315,0.2,0.7,1,0.02,,,0.86,WUHU216HW,2013-02-28 01:44:00,
2013-02-27 20:49:00,33.1,-17.6,29.61,WNW,293,0.0,0.7,1,0.02,,,0.86,WUHU216HW,2013-02-28 01:49:00,
2013-02-27 20:54:00,33.1,-17.6,29.62,NW,315,0.2,0.4,1,0.03,,,0.87,WUHU216HW,2013-02-28 01:54:00,
2013-02-27 20:59:00,33.3,-17.4,29.61,NNW,338,0.7,0.9,1,0.03,,,0.87,WUHU216HW,2013-02-28 01:59:00,
2013-02-27 21:04:00,33.3,-17.4,29.61,North,0,0.0,0.9,1,0.02,,,0.87,WUHU216HW,2013-02-28 02:04:00,
2013-02-27 21:09:00,33.5,-17.4,29.61,West,270,0.4,0.7,1,0.02,,,0.87,WUHU216HW,2013-02-28 02:09:00,
2013-02-27 21:14:00,33.5,-17.4,29.61,NNW,338,0.4,0.4,1,0.03,,,0.88,WUHU216HW,2013-02-28 02:14:00,
2013-02-27 21:19:00,33.5,-17.4,29.61,NNE,23,0.4,1.6,1,0.03,,,0.88,WUHU216HW,2013-02-28 02:19:00,
2013-02-27 21:24:00,33.5,-17.4,29.61,North,0,0.0,1.6,1,0.04,,,0.89,WUHU216HW,2013-02-28 02:24:00,
2013-02-27 21:29:00,33.5,-17.4,29.61,NNE,23,0.2,0.4,1,0.03,,,0.89,WUHU216HW,2013-02-28 02:29:00,
2013-02-27 21:34:00,33.5,-17.4,29.61,WNW,293,0.0,0.4,1,0.03,,,0.89,WUHU216HW,2013-02-28 02:34:00,
2013-02-27 21:39:00,33.5,-17.4,29.61,WNW,293,0.0,0.4,1,0.04,,,0.90,WUHU216HW,2013-02-28 02:39:00,
2013-02-27 21:44:00,33.5,-17.4,29.61,WSW,248,0.0,0.4,1,0.04,,,0.90,WUHU216HW,2013-02-28 02:44:00,
2013-02-27 21:49:00,33.5,-17.4,29.61,WSW,248,0.0,0.4,1,0.05,,,0.91,WUHU216HW,2013-02-28 02:49:00,
2013-02-27 21:54:00,33.7,-17.2,29.60,NW,315,0.2,0.4,1,0.04,,,0.91,WUHU216HW,2013-02-28 02:54:00,
2013-02-27 21:59:00,33.7,-17.2,29.59,NW,315,0.0,0.4,1,0.05,,,0.92,WUHU216HW,2013-02-28 02:59:00,
2013-02-27 22:04:00,33.7,-17.2,29.59,NNW,338,0.4,0.4,1,0.05,,,0.92,WUHU216HW,2013-02-28 03:04:00,
2013-02-27 22:09:00,33.7,-17.2,29.59,SW,225,0.2,0.4,1,0.05,,,0.93,WUHU216HW,2013-02-28 03:09:00,
2013-02-27 22:14:00,33.7,-17.2,29.58,WNW,293,0.0,0.4,1,0.05,,,0.93,WUHU216HW,2013-02-28 03:14:00,
2013-02-27 22:19:00,33.7,-17.2,29.58,West,270,0.0,0.4,1,0.06,,,0.94,WUHU216HW,2013-02-28 03:19:00,
2013-02-27 22:24:00,33.7,-17.2,29.58,ENE,68,0.0,0.7,1,0.06,,,0.95,WUHU216HW,2013-02-28 03:24:00,
2013-02-27 22:29:00,33.8,-17.1,29.58,North,0,0.2,0.7,1,0.06,,,0.95,WUHU216HW,2013-02-28 03:29:00,
2013-02-27 22:34:00,33.8,-17.1,29.57,NW,315,0.0,0.4,1,0.05,,,0.95,WUHU216HW,2013-02-28 03:34:00,
2013-02-27 22:39:00,33.8,-17.1,29.57,SE,135,0.2,0.4,1,0.06,,,0.96,WUHU216HW,2013-02-28 03:39:00,
2013-02-27 22:44:00,33.8,-17.1,29.57,SSW,203,0.0,0.4,1,0.05,,,0.96,WUHU216HW,2013-02-28 03:44:00,
2013-02-27 22:49:00,33.8,-17.1,29.57,WNW,293,0.0,0.4,1,0.06,,,0.97,WUHU216HW,2013-02-28 03:49:00,
2013-02-27 22:54:00,34.0,-16.9,29.57,NNW,338,0.0,0.4,1,0.05,,,0.97,WUHU216HW,2013-02-28 03:54:00,
2013-02-27 22:59:00,34.0,-16.9,29.56,ESE,113,0.0,0.4,1,0.05,,,0.97,WUHU216HW,2013-02-28 03:59:00,
2013-02-27 23:04:00,34.0,-16.9,29.56,SSW,203,0.0,0.4,1,0.05,,,0.98,WUHU216HW,2013-02-28 04:04:00,
2013-02-27 23:09:00,34.0,-16.9,29.56,SW,225,0.2,0.4,1,0.05,,,0.98,WUHU216HW,2013-02-28 04:09:00,
2013-02-27 23:14:00,34.0,-16.9,29.56,NW,315,0.0,0.4,1,0.04,,,0.98,WUHU216HW,2013-02-28 04:14:00,
2013-02-27 23:19:00,34.0,-16.9,29.56,West,270,0.2,0.2,1,0.05,,,0.99,WUHU216HW,2013-02-28 04:19:00,
2013-02-27 23:24:00,34.0,-16.9,29.56,WSW,248,0.2,0.2,1,0.04,,,0.99,WUHU216HW,2013-02-28 04:24:00,
2013-02-27 23:29:00,34.2,-16.8,29.55,WSW,248,0.2,0.2,1,0.04,,,0.99,WUHU216HW,2013-02-28 04:29:00,
2013-02-27 23:34:00,34.2,-16.8,29.55,WSW,248,0.4,0.4,1,0.03,,,0.99,WUHU216HW,2013-02-28 04:34:00,
2013-02-27 23:39:00,34.2,-16.8,29.55,SSW,203,0.0,0.4,1,0.04,,,1.00,WUHU216HW,2013-02-28 04:39:00,
2013-02-27 23:44:00,34.0,-16.9,29.55,SW,225,0.4,0.4,1,0.03,,,1.00,WUHU216HW,2013-02-28 04:44:00,
2013-02-27 23:49:00,34.0,-16.9,29.55,South,180,0.0,0.4,1,0.03,,,1.00,WUHU216HW,2013-02-28 04:49:00,
2013-02-27 23:54:00,34.0,-16.9,29.55,SW,225,0.2,0.4,1,0.03,,,1.00,WUHU216HW,2013-02-28 04:54:00,
2013-02-27 23:59:00,34.0,-16.9,29.55,West,270,0.2,0.7,1,0.02,,,1.00,WUHU216HW,2013-02-28 04:59:00,